EW2997 Weather Reports


time (UTC)temp
C
wind
direction
speed
KPH
gust
KPH
rain 1hr
cm
rain 24hr
cm
rain mn
cm
humidity
%
barometer
mb
20260905032453 21 221 0.0 0.0 0.00 0.00 0.00 96 1017.4
20260905025452 21 221 0.0 0.0 0.00 0.00 0.00 96 1017.4
20260905022451 21 221 0.0 0.0 0.00 0.00 0.00 96 1017.0
20260905015445 21 221 0.0 0.0 0.00 0.00 0.00 95 1016.7
20260905012445 21 221 0.0 0.0 0.00 0.00 0.00 94 1016.7
20260905005443 22 236 1.6 1.6 0.00 0.00 0.00 94 1017.0
20260905002443 23 239 3.2 3.2 0.00 0.00 0.00 91 1016.3
20260904235443 23 222 3.2 3.2 0.00 0.00 0.00 90 1016.3
20260904232444 25 222 0.0 0.0 0.00 0.00 0.00 85 1016.3
20260904225440 26 222 0.0 0.0 0.00 0.00 0.00 84 1016.3
20260904222438 26 222 1.6 1.6 0.00 0.00 0.00 77 1017.0
20260904215435 27 251 0.0 0.0 0.00 0.00 0.00 69 1017.0
20260904212433 27 277 3.2 3.2 0.00 0.00 0.00 64 1016.7
20260904205432 27 288 4.8 4.8 0.00 0.00 0.00 63 1017.0
20260904202431 29 18 0.0 0.0 0.00 0.00 0.00 59 1017.0
20260904195427 29 32 0.0 0.0 0.00 0.00 0.00 64 1017.7
20260904192425 28 115 0.0 0.0 0.00 0.00 0.00 69 1017.4
20260904185424 27 300 0.0 0.0 0.00 0.00 0.00 67 1017.7
20260904182424 28 303 0.0 0.0 0.00 0.00 0.00 63 1017.7
20260904175419 29 65 3.2 3.2 0.00 0.00 0.00 58 1018.4
20260904172420 29 47 4.8 6.4 0.00 0.00 0.00 65 1018.4
20260904165418 27 276 3.2 3.2 0.00 0.00 0.00 69 1018.7
20260904162415 26 247 1.6 1.6 0.00 0.00 0.00 72 1019.0
20260904155415 26 292 3.2 3.2 0.00 0.00 0.00 72 1019.0
20260904152413 25 38 1.6 1.6 0.00 0.00 0.00 73 1019.5
20260904145410 25 168 0.0 0.0 0.00 0.00 0.00 74 1019.5
20260904142408 25 312 3.2 3.2 0.00 0.00 0.00 77 1019.0
20260904135406 23 90 1.6 1.6 0.00 0.00 0.00 79 1019.5
20260904132404 22 114 0.0 0.0 0.00 0.00 0.00 87 1019.5
20260904125403 23 144 0.0 0.0 0.00 0.00 0.00 77 1019.0
20260904122401 22 82 0.0 0.0 0.00 0.00 0.00 86 1019.0
20260904115358 19 150 0.0 0.0 0.00 0.00 0.00 97 1019.5
20260904112355 18 150 0.0 0.0 0.00 0.00 0.00 97 1019.0
20260904105353 18 149 0.0 0.0 0.00 0.00 0.00 97 1018.7
20260904102349 19 150 0.0 0.0 0.00 0.00 0.00 97 1018.4
20260904095345 19 150 0.0 0.0 0.00 0.00 0.00 97 1018.4
20260904092341 20 221 0.0 0.0 0.00 0.00 0.00 96 1018.7
20260904085337 20 155 1.6 1.6 0.00 0.00 0.00 96 1018.4
20260904082332 20 132 0.0 0.0 0.00 0.00 0.00 96 1018.4
20260904075329 20 132 0.0 0.0 0.00 0.00 0.00 96 1018.4
20260904072326 19 132 0.0 0.0 0.00 0.00 0.00 96 1017.7
20260904065326 19 181 0.0 0.0 0.00 0.00 0.00 96 1017.4
20260904062322 19 180 1.6 1.6 0.00 0.00 0.00 96 1017.7
20260904055319 19 224 0.0 0.0 0.00 0.00 0.00 95 1017.7
20260904052315 20 185 3.2 3.2 0.00 0.00 0.00 94 1018.7
20260904045311 19 192 0.0 0.0 0.00 0.00 0.00 96 1018.7
20260904042308 20 148 0.0 0.0 0.00 0.00 0.00 96 1018.7